�������l�o���
Date,Time,MP-1(��Sv/h),MP-2(��Sv/h),MP-3(��Sv/h),MP-4(��Sv/h),MP-5(��Sv/h),MP-6(��Sv/h),MP-7(��Sv/h),MP-8(��Sv/h),����,����(m/s),���J
2018/06/20,00:00,0.873,1.238,0.859,1.552,1.082,0.475,0.828,0.790,��쓌,2.6,��
2018/06/20,00:10,0.873,1.237,0.859,1.551,1.084,0.475,0.829,0.791,��쓌,2.6,��
2018/06/20,00:20,0.873,1.236,0.858,1.550,1.082,0.474,0.826,0.790,��쓌,3.2,��
2018/06/20,00:30,0.873,1.239,0.858,1.548,1.083,0.474,0.826,0.788,��쓌,2.6,��
2018/06/20,00:40,0.876,1.238,0.856,1.549,1.082,0.476,0.828,0.789,��쓌,2.3,��
2018/06/20,00:50,0.876,1.240,0.856,1.549,1.081,0.476,0.826,0.789,��쓌,4.0,��
2018/06/20,01:00,0.871,1.241,0.859,1.549,1.082,0.475,0.826,0.788,��,3.3,��
2018/06/20,01:10,0.871,1.240,0.858,1.552,1.082,0.476,0.827,0.790,��쐼,2.6,��
2018/06/20,01:20,0.871,1.238,0.860,1.551,1.083,0.476,0.827,0.789,��,3.3,��
2018/06/20,01:30,0.872,1.241,0.858,1.549,1.082,0.475,0.828,0.788,��,3.4,��
2018/06/20,01:40,0.873,1.243,0.857,1.551,1.081,0.477,0.828,0.789,��,3.8,��
2018/06/20,01:50,0.874,1.241,0.858,1.548,1.082,0.474,0.827,0.789,��,4.0,��
2018/06/20,02:00,0.873,1.243,0.858,1.550,1.084,0.475,0.827,0.789,��,3.1,��
2018/06/20,02:10,0.875,1.238,0.857,1.551,1.083,0.475,0.827,0.788,��,2.3,��
2018/06/20,02:20,0.873,1.241,0.858,1.549,1.082,0.475,0.825,0.789,��,3.2,��
2018/06/20,02:30,0.873,1.242,0.858,1.550,1.084,0.476,0.827,0.790,��,3.9,��
2018/06/20,02:40,0.874,1.242,0.857,1.552,1.084,0.476,0.825,0.788,��,3.9,��
2018/06/20,02:50,0.874,1.242,0.858,1.550,1.083,0.476,0.826,0.790,��쓌,3.7,��
2018/06/20,03:00,0.873,1.244,0.858,1.552,1.080,0.477,0.828,0.788,��,4.7,��
2018/06/20,03:10,0.874,1.243,0.856,1.550,1.086,0.476,0.827,0.789,��,4.8,��
2018/06/20,03:20,0.873,1.240,0.857,1.552,1.084,0.476,0.830,0.789,��,5.0,��
2018/06/20,03:30,0.875,1.238,0.859,1.550,1.087,0.476,0.829,0.791,��,4.4,��
2018/06/20,03:40,0.873,1.241,0.858,1.552,1.082,0.476,0.828,0.790,��,3.8,��
2018/06/20,03:50,0.873,1.241,0.858,1.554,1.085,0.475,0.827,0.790,��,3.2,��
2018/06/20,04:00,0.874,1.240,0.860,1.551,1.083,0.475,0.826,0.790,��,3.8,��
2018/06/20,04:10,0.873,1.242,0.858,1.553,1.084,0.476,0.827,0.788,��,3.7,��
2018/06/20,04:20,0.873,1.242,0.858,1.552,1.085,0.477,0.827,0.789,��,4.8,��
2018/06/20,04:30,0.873,1.242,0.859,1.549,1.083,0.476,0.829,0.790,��,5.7,��
2018/06/20,04:40,0.874,1.241,0.857,1.548,1.084,0.476,0.827,0.789,��,5.1,��
2018/06/20,04:50,0.874,1.242,0.860,1.549,1.084,0.477,0.827,0.789,��,4.0,��
2018/06/20,05:00,0.874,1.239,0.860,1.551,1.085,0.476,0.826,0.790,��쓌,4.2,��
2018/06/20,05:10,0.874,1.241,0.858,1.550,1.084,0.476,0.828,0.790,��쓌,4.8,��
2018/06/20,05:20,0.874,1.241,0.857,1.551,1.083,0.476,0.828,0.790,��쓌,5.5,��
2018/06/20,05:30,0.874,1.241,0.858,1.552,1.086,0.476,0.827,0.789,��,4.5,��
2018/06/20,05:40,0.873,1.240,0.859,1.551,1.085,0.476,0.828,0.788,��쓌,4.5,��
2018/06/20,05:50,0.871,1.240,0.858,1.551,1.084,0.477,0.828,0.790,��쓌,5.2,��
2018/06/20,06:00,0.872,1.239,0.858,1.551,1.082,0.477,0.827,0.791,��쓌,5.6,��
2018/06/20,06:10,0.873,1.239,0.858,1.551,1.081,0.474,0.827,0.789,��쓌,6.1,��
2018/06/20,06:20,0.873,1.239,0.857,1.552,1.078,0.476,0.828,0.791,��쓌,6.7,��
2018/06/20,06:30,0.873,1.238,0.858,1.550,1.080,0.475,0.827,0.789,��쓌,7.5,��
2018/06/20,06:40,0.872,1.239,0.858,1.550,1.080,0.475,0.826,0.790,��쓌,7.7,�L
2018/06/20,06:50,0.871,1.237,0.857,1.550,1.079,0.475,0.827,0.788,��쓌,7.1,�L
2018/06/20,07:00,0.873,1.239,0.858,1.551,1.079,0.476,0.828,0.789,��쓌,6.9,�L
2018/06/20,07:10,0.872,1.239,0.858,1.548,1.079,0.477,0.826,0.789,��쓌,7.1,�L
2018/06/20,07:20,0.872,1.237,0.858,1.550,1.080,0.474,0.828,0.788,��,6.2,�L
2018/06/20,07:30,0.872,1.235,0.856,1.547,1.078,0.474,0.827,0.788,��쓌,7.0,�L
2018/06/20,07:40,0.871,1.239,0.855,1.547,1.079,0.475,0.826,0.787,��쓌,6.3,�L
2018/06/20,07:50,0.871,1.236,0.855,1.550,1.080,0.475,0.828,0.788,��쓌,6.1,�L
2018/06/20,08:00,0.868,1.236,0.853,1.548,1.075,0.475,0.824,0.787,��쓌,6.1,�L
2018/06/20,08:10,0.864,1.229,0.849,1.545,1.071,0.475,0.825,0.786,��쓌,6.6,�L
2018/06/20,08:20,0.863,1.222,0.850,1.541,1.066,0.474,0.823,0.783,��쓌,6.1,�L
2018/06/20,08:30,0.861,1.216,0.843,1.535,1.059,0.473,0.820,0.781,��,5.3,�L
2018/06/20,08:40,0.858,1.206,0.842,1.525,1.055,0.472,0.820,0.781,��쓌,5.8,�L
2018/06/20,08:50,0.852,1.201,0.839,1.521,1.052,0.472,0.816,0.777,-,CALM,�L
2018/06/20,09:00,0.851,1.195,0.837,1.516,1.050,0.471,0.815,0.777,��,4.6,�L
2018/06/20,09:10,0.849,1.193,0.836,1.511,1.045,0.470,0.814,0.776,��쓌,6.0,�L
2018/06/20,09:20,0.851,1.192,0.837,1.505,1.044,0.471,0.814,0.776,�쓌,6.2,�L
2018/06/20,09:30,0.846,1.187,0.833,1.502,1.043,0.469,0.812,0.775,��쓌,9.6,�L
2018/06/20,09:40,0.845,1.186,0.832,1.497,1.042,0.469,0.811,0.773,��쓌,8.0,�L
2018/06/20,09:50,0.841,1.181,0.829,1.492,1.033,0.467,0.809,0.772,��쓌,6.8,�L
2018/06/20,10:00,0.840,1.173,0.824,1.484,1.029,0.466,0.807,0.771,�쓌,8.5,�L
2018/06/20,10:10,0.836,1.165,0.821,1.478,1.024,0.464,0.806,0.769,�쓌,7.0,�L
2018/06/20,10:20,0.831,1.162,0.817,1.473,1.019,0.464,0.803,0.767,��쓌,8.0,�L
2018/06/20,10:30,0.834,1.159,0.819,1.470,1.018,0.462,0.801,0.768,�쓌,9.7,�L
2018/06/20,10:40,0.834,1.164,0.818,1.468,1.017,0.463,0.801,0.767,�쓌,8.3,�L
2018/06/20,10:50,0.836,1.164,0.816,1.475,1.017,0.464,0.803,0.768,��쓌,9.0,�L
2018/06/20,11:00,0.836,1.164,0.819,1.472,1.019,0.464,0.803,0.767,�쓌,9.1,�L
2018/06/20,11:10,0.837,1.167,0.817,1.473,1.020,0.464,0.802,0.769,��쓌,9.5,�L
2018/06/20,11:20,0.836,1.167,0.819,1.472,1.019,0.462,0.804,0.769,��쓌,8.1,�L
2018/06/20,11:30,0.834,1.165,0.819,1.472,1.020,0.463,0.802,0.768,��쓌,7.9,�L
2018/06/20,11:40,0.833,1.160,0.816,1.471,1.015,0.464,0.801,0.767,�쓌,8.6,�L
2018/06/20,11:50,0.836,1.162,0.819,1.473,1.017,0.462,0.803,0.768,�쓌,6.9,�L
2018/06/20,12:00,0.835,1.166,0.817,1.468,1.014,0.464,0.800,0.767,�쓌,6.6,�L
2018/06/20,12:10,0.835,1.164,0.816,1.472,1.015,0.463,0.803,0.768,�쓌,6.4,�L
2018/06/20,12:20,0.835,1.167,0.817,1.474,1.021,0.464,0.802,0.768,�쓌,5.0,�L
2018/06/20,12:30,0.833,1.168,0.820,1.479,1.018,0.465,0.805,0.767,�쓌,6.1,�L
2018/06/20,12:40,0.835,1.170,0.819,1.477,1.020,0.465,0.803,0.769,�쓌,5.8,�L
2018/06/20,12:50,0.836,1.171,0.820,1.478,1.020,0.464,0.802,0.768,�쓌,5.1,�L
2018/06/20,13:00,0.838,1.175,0.821,1.480,1.021,0.465,0.805,0.770,�쓌,3.4,�L
2018/06/20,13:10,0.839,1.171,0.822,1.477,1.020,0.463,0.805,0.768,�쓌,5.6,�L
2018/06/20,13:20,0.837,1.172,0.822,1.481,1.018,0.465,0.804,0.769,�쓌,5.6,�L
2018/06/20,13:30,0.836,1.168,0.820,1.477,1.017,0.465,0.805,0.769,�쓌,4.9,�L
2018/06/20,13:40,0.836,1.169,0.818,1.478,1.017,0.464,0.804,0.768,�쓌,4.3,�L
2018/06/20,13:50,0.836,1.170,0.818,1.477,1.020,0.465,0.806,0.769,��쓌,4.8,�L
2018/06/20,14:00,0.836,1.171,0.819,1.479,1.020,0.466,0.805,0.769,��쓌,5.4,�L
2018/06/20,14:10,0.839,1.173,0.819,1.479,1.022,0.465,0.804,0.769,��쓌,4.7,�L
2018/06/20,14:20,0.839,1.171,0.821,1.483,1.021,0.464,0.806,0.770,��쓌,4.6,��
2018/06/20,14:30,0.841,1.172,0.821,1.482,1.023,0.466,0.804,0.770,��쓌,5.4,��
2018/06/20,14:40,0.839,1.173,0.823,1.484,1.024,0.467,0.807,0.769,��쓌,5.2,��
2018/06/20,14:50,0.841,1.174,0.821,1.482,1.024,0.466,0.806,0.771,��쓌,5.8,�L
2018/06/20,15:00,0.840,1.175,0.823,1.483,1.026,0.466,0.805,0.771,��쓌,6.0,�L
2018/06/20,15:10,0.842,1.175,0.822,1.484,1.027,0.465,0.805,0.770,��쓌,4.5,�L
2018/06/20,15:20,0.837,1.178,0.821,1.483,1.026,0.467,0.808,0.770,��쓌,4.7,�L
2018/06/20,15:30,0.839,1.176,0.821,1.485,1.026,0.467,0.805,0.771,�쓌,3.8,�L
2018/06/20,15:40,0.841,1.176,0.820,1.485,1.024,0.467,0.806,0.770,�쓌,4.0,�L
2018/06/20,15:50,0.841,1.176,0.819,1.481,1.024,0.466,0.806,0.768,�쓌,3.2,�L
2018/06/20,16:00,0.840,1.172,0.820,1.482,1.023,0.467,0.803,0.769,�쓌,2.6,�L
2018/06/20,16:10,0.837,1.169,0.817,1.483,1.020,0.467,0.803,0.769,�쓌,3.5,�L
2018/06/20,16:20,0.835,1.167,0.817,1.484,1.017,0.466,0.804,0.769,��쓌,1.9,�L
2018/06/20,16:30,0.837,1.167,0.818,1.480,1.016,0.463,0.803,0.769,��쓌,2.0,�L
2018/06/20,16:40,0.836,1.170,0.816,1.480,1.020,0.465,0.803,0.769,��쓌,2.5,�L
2018/06/20,16:50,0.840,1.167,0.818,1.479,1.015,0.466,0.803,0.770,��쓌,1.7,�L
2018/06/20,17:00,0.838,1.168,0.817,1.481,1.018,0.465,0.804,0.771,��쓌,1.1,�L
2018/06/20,17:10,0.838,1.168,0.818,1.480,1.016,0.466,0.804,0.768,�쓌,2.8,�L
2018/06/20,17:20,0.838,1.169,0.818,1.480,1.017,0.464,0.804,0.768,�쓌,2.0,�L
2018/06/20,17:30,0.839,1.171,0.819,1.480,1.015,0.464,0.802,0.771,��쓌,2.2,�L
2018/06/20,17:40,0.839,1.168,0.820,1.482,1.017,0.465,0.804,0.768,��쓌,2.5,�L
2018/06/20,17:50,0.837,1.169,0.819,1.480,1.019,0.466,0.803,0.769,�쓌,1.1,�L
2018/06/20,18:00,0.838,1.168,0.819,1.477,1.017,0.466,0.803,0.768,�쓌,1.5,�L
2018/06/20,18:10,0.837,1.168,0.819,1.478,1.012,0.465,0.803,0.767,�쓌,2.5,�L
2018/06/20,18:20,0.834,1.165,0.819,1.474,1.013,0.465,0.799,0.769,���쓌,3.8,�L
2018/06/20,18:30,0.836,1.165,0.818,1.473,1.010,0.465,0.802,0.767,�쓌,4.0,�L
2018/06/20,18:40,0.834,1.162,0.818,1.473,1.015,0.463,0.800,0.768,�쓌,3.2,�L
2018/06/20,18:50,0.836,1.164,0.817,1.474,1.010,0.464,0.802,0.766,���쓌,2.6,�L
2018/06/20,19:00,0.838,1.164,0.818,1.473,1.012,0.463,0.802,0.768,�쓌,3.2,�L
2018/06/20,19:10,0.837,1.163,0.818,1.475,1.014,0.465,0.802,0.768,�쓌,2.0,�L
2018/06/20,19:20,0.838,1.167,0.819,1.474,1.014,0.465,0.802,0.767,�쓌,2.0,�L
2018/06/20,19:30,0.838,1.165,0.820,1.476,1.015,0.467,0.801,0.769,��쓌,2.9,�L
2018/06/20,19:40,0.837,1.165,0.817,1.475,1.013,0.467,0.802,0.769,��쓌,1.7,�L
2018/06/20,19:50,0.838,1.163,0.819,1.474,1.013,0.464,0.801,0.768,��,2.0,�L
2018/06/20,20:00,0.836,1.163,0.816,1.475,1.016,0.464,0.801,0.769,���k��,2.5,�L
2018/06/20,20:10,0.835,1.164,0.818,1.472,1.014,0.465,0.801,0.768,��,2.8,�L
2018/06/20,20:20,0.834,1.165,0.817,1.475,1.016,0.466,0.801,0.767,�k��,2.0,�L
2018/06/20,20:30,0.837,1.164,0.817,1.475,1.015,0.464,0.801,0.768,��,1.7,�L
2018/06/20,20:40,0.836,1.166,0.818,1.473,1.014,0.466,0.801,0.769,-,CALM,�L
2018/06/20,20:50,0.837,1.168,0.818,1.474,1.014,0.464,0.800,0.770,-,CALM,�L
2018/06/20,21:00,0.837,1.165,0.817,1.471,1.013,0.465,0.801,0.766,�k��,0.6,�L
2018/06/20,21:10,0.836,1.162,0.818,1.469,1.014,0.465,0.800,0.767,�k�k��,1.5,�L
2018/06/20,21:20,0.834,1.162,0.816,1.468,1.009,0.465,0.801,0.767,�k�k��,1.7,�L
2018/06/20,21:30,0.836,1.165,0.815,1.469,1.011,0.464,0.800,0.768,�k,2.2,�L
2018/06/20,21:40,0.837,1.165,0.815,1.469,1.013,0.465,0.801,0.769,�k�k��,2.6,�L
2018/06/20,21:50,0.835,1.164,0.816,1.470,1.013,0.463,0.801,0.769,�k�k��,2.8,�L
2018/06/20,22:00,0.835,1.162,0.815,1.471,1.013,0.465,0.802,0.768,�k�k��,3.1,�L
2018/06/20,22:10,0.838,1.165,0.817,1.469,1.013,0.467,0.802,0.768,�k�k��,4.2,�L
2018/06/20,22:20,0.835,1.164,0.817,1.471,1.016,0.463,0.802,0.771,�k�k��,4.0,�L
2018/06/20,22:30,0.837,1.164,0.818,1.469,1.013,0.464,0.799,0.770,�k�k��,4.0,�L
2018/06/20,22:40,0.836,1.166,0.818,1.474,1.015,0.465,0.802,0.770,�k,3.8,�L
2018/06/20,22:50,0.837,1.167,0.817,1.474,1.016,0.466,0.802,0.772,�k,3.2,�L
2018/06/20,23:00,0.837,1.165,0.817,1.469,1.017,0.464,0.801,0.768,�k,3.2,�L
2018/06/20,23:10,0.835,1.167,0.817,1.471,1.018,0.466,0.801,0.771,�k�k��,2.3,�L
2018/06/20,23:20,0.836,1.163,0.819,1.473,1.018,0.464,0.801,0.769,�k�k��,2.2,�L
2018/06/20,23:30,0.836,1.165,0.818,1.474,1.016,0.466,0.802,0.771,�k�k��,1.7,�L
2018/06/20,23:40,0.835,1.165,0.817,1.475,1.017,0.465,0.801,0.770,�k�k��,2.2,�L
2018/06/20,23:50,0.836,1.165,0.817,1.475,1.018,0.464,0.801,0.770,�k�k��,2.5,�L
